Location: Monfort
(47.1967°N, 0.2115°W)
Time: 12:03:35
(UTC+00:00)

Cosmos 1340 - Pass Details

Date: 24 October 2020
Orbit: 501 x 504 km, 81.2° (Epoch: 28 November)

Event Time Altitude Azimuth Distance (km) Brightness Sun altitude
Rises 18:55:15 0° 344° (NNW) 2,617 6.5 -20.8°
Reaches altitude 10° 18:57:25 10° 340° (NNW) 1,727 5.6 -21.1°
Maximum altitude 19:01:06 53° 263° (W) 630 3.4 -21.8°
Drops below altitude 10° 19:04:46 10° 186° (S) 1,713 5.3 -22.4°
Enters shadow 19:05:24 - 185° (S) 1,971 5.6 -22.5°
